Time,TemperatureF,DewpointF,PressureIn,WindDirection,WindDirectionDegrees,WindSpeedMPH,WindSpeedGustMPH,Humidity,HourlyPrecipIn,Conditions,Clouds,dailyrainin,SoftwareType,DateUTC
2013-01-10 00:07:00,44.6,29.0,30.03,NW,307,5.0,15.0,54,0.00,,,0.00,weatherlink.com 1.10,2013-01-10 05:07:00,
2013-01-10 00:22:00,44.4,28.0,30.03,West,262,2.0,11.0,53,0.00,,,0.00,weatherlink.com 1.10,2013-01-10 05:22:00,
2013-01-10 00:52:00,44.4,27.0,30.03,West,270,3.0,14.0,51,0.00,,,0.00,weatherlink.com 1.10,2013-01-10 05:52:00,
2013-01-10 01:07:00,44.4,27.0,30.04,WNW,283,3.0,14.0,51,0.00,,,0.00,weatherlink.com 1.10,2013-01-10 06:07:00,
2013-01-10 01:22:00,44.4,27.0,30.04,WNW,301,4.0,11.0,51,0.00,,,0.00,weatherlink.com 1.10,2013-01-10 06:22:00,
2013-01-10 01:37:00,44.5,27.0,30.05,SSW,197,2.0,17.0,51,0.00,,,0.00,weatherlink.com 1.10,2013-01-10 06:37:00,
2013-01-10 01:52:00,44.7,27.0,30.05,WNW,290,11.0,15.0,51,0.00,,,0.00,weatherlink.com 1.10,2013-01-10 06:52:00,
2013-01-10 02:07:00,45.0,28.0,30.06,WSW,243,11.0,27.0,51,0.00,,,0.00,weatherlink.com 1.10,2013-01-10 07:07:00,
2013-01-10 02:23:00,44.7,28.0,30.07,WSW,246,5.0,23.0,53,0.00,,,0.00,weatherlink.com 1.10,2013-01-10 07:23:00,
2013-01-10 02:38:00,43.9,28.0,30.08,WNW,284,14.0,25.0,55,0.00,,,0.00,weatherlink.com 1.10,2013-01-10 07:38:00,
2013-01-10 02:53:00,43.3,29.0,30.09,WNW,285,7.0,19.0,57,0.00,,,0.00,weatherlink.com 1.10,2013-01-10 07:53:00,
2013-01-10 03:08:00,42.8,29.0,30.09,NW,326,5.0,17.0,58,0.00,,,0.00,weatherlink.com 1.10,2013-01-10 08:08:00,
2013-01-10 03:23:00,42.3,29.0,30.10,WNW,303,9.0,11.0,59,0.00,,,0.00,weatherlink.com 1.10,2013-01-10 08:23:00,
2013-01-10 03:53:00,41.9,28.0,30.13,WNW,301,7.0,13.0,59,0.00,,,0.00,weatherlink.com 1.10,2013-01-10 08:53:00,
2013-01-10 04:08:00,42.2,28.0,30.14,WSW,243,2.0,12.0,57,0.00,,,0.00,weatherlink.com 1.10,2013-01-10 09:08:00,
2013-01-10 04:23:00,42.4,27.0,30.16,ESE,113,1.0,14.0,55,0.00,,,0.00,weatherlink.com 1.10,2013-01-10 09:23:00,
2013-01-10 04:38:00,42.4,27.0,30.16,NW,326,7.0,15.0,54,0.00,,,0.00,weatherlink.com 1.10,2013-01-10 09:38:00,
2013-01-10 04:53:00,42.4,26.0,30.17,NNW,336,6.0,13.0,52,0.00,,,0.00,weatherlink.com 1.10,2013-01-10 09:53:00,
2013-01-10 05:08:00,42.3,26.0,30.17,North,355,5.0,15.0,52,0.00,,,0.00,weatherlink.com 1.10,2013-01-10 10:08:00,
2013-01-10 05:23:00,42.2,26.0,30.18,WNW,293,2.0,14.0,52,0.00,,,0.00,weatherlink.com 1.10,2013-01-10 10:23:00,
2013-01-10 05:38:00,42.0,25.0,30.19,North,357,4.0,11.0,51,0.00,,,0.00,weatherlink.com 1.10,2013-01-10 10:38:00,
2013-01-10 05:53:00,41.7,25.0,30.20,West,263,7.0,12.0,52,0.00,,,0.00,weatherlink.com 1.10,2013-01-10 10:53:00,
2013-01-10 06:08:00,41.3,25.0,30.20,NW,314,7.0,9.0,52,0.00,,,0.00,weatherlink.com 1.10,2013-01-10 11:08:00,
2013-01-10 06:23:00,41.2,25.0,30.23,WNW,294,5.0,13.0,52,0.00,,,0.00,weatherlink.com 1.10,2013-01-10 11:23:00,
2013-01-10 06:38:00,41.0,24.0,30.23,WSW,250,5.0,13.0,52,0.00,,,0.00,weatherlink.com 1.10,2013-01-10 11:38:00,
2013-01-10 06:53:00,40.6,24.0,30.24,NE,51,2.0,9.0,53,0.00,,,0.00,weatherlink.com 1.10,2013-01-10 11:53:00,
2013-01-10 07:08:00,40.2,24.0,30.25,North,354,3.0,12.0,53,0.00,,,0.00,weatherlink.com 1.10,2013-01-10 12:08:00,
2013-01-10 07:24:00,40.2,24.0,30.26,SW,235,6.0,11.0,53,0.00,,,0.00,weatherlink.com 1.10,2013-01-10 12:24:00,
2013-01-10 07:39:00,40.1,24.0,30.26,West,273,4.0,12.0,53,0.00,,,0.00,weatherlink.com 1.10,2013-01-10 12:39:00,
2013-01-10 07:54:00,40.1,24.0,30.26,WNW,295,6.0,10.0,54,0.00,,,0.00,weatherlink.com 1.10,2013-01-10 12:54:00,
2013-01-10 08:09:00,40.4,24.0,30.27,West,281,6.0,9.0,53,0.00,,,0.00,weatherlink.com 1.10,2013-01-10 13:09:00,
2013-01-10 08:24:00,40.7,24.0,30.29,WNW,300,0.0,12.0,52,0.00,,,0.00,weatherlink.com 1.10,2013-01-10 13:24:00,
2013-01-10 08:39:00,41.3,25.0,30.31,NW,319,2.0,15.0,52,0.00,,,0.00,weatherlink.com 1.10,2013-01-10 13:39:00,
2013-01-10 08:54:00,41.9,24.0,30.31,WNW,282,4.0,10.0,50,0.00,,,0.00,weatherlink.com 1.10,2013-01-10 13:54:00,
2013-01-10 09:09:00,42.2,25.0,30.31,WSW,242,4.0,11.0,50,0.00,,,0.00,weatherlink.com 1.10,2013-01-10 14:09:00,
2013-01-10 09:24:00,42.5,24.0,30.31,North,352,2.0,13.0,48,0.00,,,0.00,weatherlink.com 1.10,2013-01-10 14:24:00,
2013-01-10 09:39:00,42.9,24.0,30.32,West,278,11.0,16.0,47,0.00,,,0.00,weatherlink.com 1.10,2013-01-10 14:39:00,
2013-01-10 09:54:00,43.3,24.0,30.32,NW,312,0.0,9.0,47,0.00,,,0.00,weatherlink.com 1.10,2013-01-10 14:54:00,
2013-01-10 10:09:00,43.5,23.0,30.32,NNW,345,13.0,16.0,45,0.00,,,0.00,weatherlink.com 1.10,2013-01-10 15:09:00,
2013-01-10 10:43:00,44.3,23.0,30.33,NW,304,8.0,13.0,44,0.00,,,0.00,weatherlink.com 1.10,2013-01-10 15:43:00,
2013-01-10 10:54:00,44.3,23.0,30.34,NNW,342,7.0,14.0,44,0.00,,,0.00,weatherlink.com 1.10,2013-01-10 15:54:00,
2013-01-10 11:09:00,44.8,24.0,30.32,NNW,341,4.0,12.0,44,0.00,,,0.00,weatherlink.com 1.10,2013-01-10 16:09:00,
2013-01-10 11:24:00,45.3,24.0,30.31,SSW,204,2.0,12.0,44,0.00,,,0.00,weatherlink.com 1.10,2013-01-10 16:24:00,
2013-01-10 11:39:00,45.3,24.0,30.31,West,274,3.0,15.0,43,0.00,,,0.00,weatherlink.com 1.10,2013-01-10 16:39:00,
2013-01-10 11:54:00,45.7,24.0,30.31,WNW,298,8.0,12.0,42,0.00,,,0.00,weatherlink.com 1.10,2013-01-10 16:54:00,
2013-01-10 12:09:00,46.1,25.0,30.31,NW,314,3.0,9.0,43,0.00,,,0.00,weatherlink.com 1.10,2013-01-10 17:09:00,
2013-01-10 12:24:00,46.4,24.0,30.31,North,358,2.0,12.0,42,0.00,,,0.00,weatherlink.com 1.10,2013-01-10 17:24:00,
2013-01-10 12:39:00,46.6,24.0,30.31,WSW,256,1.0,13.0,41,0.00,,,0.00,weatherlink.com 1.10,2013-01-10 17:39:00,
2013-01-10 12:54:00,46.5,24.0,30.32,West,274,3.0,18.0,41,0.00,,,0.00,weatherlink.com 1.10,2013-01-10 17:54:00,
2013-01-10 13:09:00,47.0,24.0,30.32,WSW,258,1.0,13.0,41,0.00,,,0.00,weatherlink.com 1.10,2013-01-10 18:09:00,
2013-01-10 13:24:00,47.0,24.0,30.32,NNE,26,7.0,13.0,41,0.00,,,0.00,weatherlink.com 1.10,2013-01-10 18:24:00,
2013-01-10 13:39:00,47.1,24.0,30.33,North,349,3.0,11.0,40,0.00,,,0.00,weatherlink.com 1.10,2013-01-10 18:39:00,
2013-01-10 13:54:00,47.8,24.0,30.34,West,263,3.0,12.0,40,0.00,,,0.00,weatherlink.com 1.10,2013-01-10 18:54:00,
2013-01-10 14:09:00,47.8,24.0,30.35,NNE,12,5.0,10.0,40,0.00,,,0.00,weatherlink.com 1.10,2013-01-10 19:09:00,
2013-01-10 14:24:00,48.1,25.0,30.35,West,274,3.0,9.0,40,0.00,,,0.00,weatherlink.com 1.10,2013-01-10 19:24:00,
2013-01-10 14:39:00,47.9,24.0,30.36,NE,46,7.0,9.0,39,0.00,,,0.00,weatherlink.com 1.10,2013-01-10 19:39:00,
2013-01-10 14:55:00,47.7,24.0,30.37,WSW,256,1.0,9.0,39,0.00,,,0.00,weatherlink.com 1.10,2013-01-10 19:55:00,
2013-01-10 15:09:00,47.7,24.0,30.37,WNW,282,3.0,8.0,39,0.00,,,0.00,weatherlink.com 1.10,2013-01-10 20:09:00,
2013-01-10 15:24:00,47.4,24.0,30.37,NNE,12,2.0,6.0,40,0.00,,,0.00,weatherlink.com 1.10,2013-01-10 20:24:00,
2013-01-10 15:55:00,45.6,24.0,30.39,SW,214,1.0,6.0,42,0.00,,,0.00,weatherlink.com 1.10,2013-01-10 20:55:00,
2013-01-10 16:10:00,44.9,23.0,30.39,NNW,340,4.0,8.0,42,0.00,,,0.00,weatherlink.com 1.10,2013-01-10 21:10:00,
2013-01-10 16:25:00,44.3,23.0,30.41,NE,44,1.0,4.0,44,0.00,,,0.00,weatherlink.com 1.10,2013-01-10 21:25:00,
2013-01-10 16:40:00,43.9,23.0,30.41,South,179,1.0,5.0,44,0.00,,,0.00,weatherlink.com 1.10,2013-01-10 21:40:00,
2013-01-10 16:55:00,43.2,24.0,30.43,North,352,1.0,4.0,46,0.00,,,0.00,weatherlink.com 1.10,2013-01-10 21:55:00,
2013-01-10 17:10:00,42.8,23.0,30.44,NW,323,1.0,5.0,46,0.00,,,0.00,weatherlink.com 1.10,2013-01-10 22:10:00,
2013-01-10 17:25:00,42.4,23.0,30.44,NE,34,2.0,5.0,47,0.00,,,0.00,weatherlink.com 1.10,2013-01-10 22:25:00,
2013-01-10 17:40:00,42.0,23.0,30.44,WNW,301,1.0,5.0,48,0.00,,,0.00,weatherlink.com 1.10,2013-01-10 22:40:00,
2013-01-10 17:55:00,41.7,24.0,30.44,NW,321,1.0,4.0,49,0.00,,,0.00,weatherlink.com 1.10,2013-01-10 22:55:00,
2013-01-10 18:10:00,41.5,23.0,30.44,NW,319,2.0,6.0,49,0.00,,,0.00,weatherlink.com 1.10,2013-01-10 23:10:00,
2013-01-10 18:25:00,41.2,24.0,30.45,WSW,245,0.0,5.0,50,0.00,,,0.00,weatherlink.com 1.10,2013-01-10 23:25:00,
2013-01-10 18:40:00,40.8,24.0,30.45,WNW,284,0.0,4.0,51,0.00,,,0.00,weatherlink.com 1.10,2013-01-10 23:40:00,
2013-01-10 18:55:00,40.0,24.0,30.45,NNW,338,1.0,2.0,53,0.00,,,0.00,weatherlink.com 1.10,2013-01-10 23:55:00,
2013-01-10 19:10:00,39.8,24.0,30.46,ENE,77,1.0,3.0,54,0.00,,,0.00,weatherlink.com 1.10,2013-01-11 00:10:00,
2013-01-10 19:25:00,39.9,24.0,30.46,North,355,7.0,8.0,54,0.00,,,0.00,weatherlink.com 1.10,2013-01-11 00:25:00,
2013-01-10 19:40:00,39.5,24.0,30.48,NW,308,4.0,5.0,54,0.00,,,0.00,weatherlink.com 1.10,2013-01-11 00:40:00,
2013-01-10 19:55:00,39.2,24.0,30.47,NW,317,2.0,5.0,55,0.00,,,0.00,weatherlink.com 1.10,2013-01-11 00:55:00,
2013-01-10 20:10:00,38.9,24.0,30.48,SE,131,1.0,5.0,56,0.00,,,0.00,weatherlink.com 1.10,2013-01-11 01:10:00,
2013-01-10 20:25:00,38.3,24.0,30.49,WNW,301,0.0,4.0,57,0.00,,,0.00,weatherlink.com 1.10,2013-01-11 01:25:00,
2013-01-10 20:40:00,38.1,24.0,30.49,NW,315,1.0,4.0,58,0.00,,,0.00,weatherlink.com 1.10,2013-01-11 01:40:00,
2013-01-10 20:55:00,37.5,24.0,30.50,East,98,1.0,3.0,59,0.00,,,0.00,weatherlink.com 1.10,2013-01-11 01:55:00,
2013-01-10 21:10:00,37.2,24.0,30.50,WSW,250,0.0,2.0,60,0.00,,,0.00,weatherlink.com 1.10,2013-01-11 02:10:00,
2013-01-10 21:40:00,36.3,24.0,30.52,WNW,285,0.0,1.0,61,0.00,,,0.00,weatherlink.com 1.10,2013-01-11 02:40:00,
2013-01-10 21:55:00,35.5,24.0,30.52,WSW,253,0.0,1.0,63,0.00,,,0.00,weatherlink.com 1.10,2013-01-11 02:55:00,
2013-01-10 22:10:00,35.2,24.0,30.52,West,278,0.0,2.0,65,0.00,,,0.00,weatherlink.com 1.10,2013-01-11 03:10:00,
2013-01-10 22:25:00,35.5,24.0,30.52,West,276,0.0,4.0,63,0.00,,,0.00,weatherlink.com 1.10,2013-01-11 03:25:00,
2013-01-10 22:40:00,35.5,24.0,30.53,NNW,335,1.0,3.0,64,0.00,,,0.00,weatherlink.com 1.10,2013-01-11 03:40:00,
2013-01-10 22:55:00,35.5,24.0,30.52,NW,326,2.0,4.0,64,0.00,,,0.00,weatherlink.com 1.10,2013-01-11 03:55:00,
2013-01-10 23:10:00,35.2,24.0,30.52,WNW,301,1.0,3.0,64,0.00,,,0.00,weatherlink.com 1.10,2013-01-11 04:10:00,
2013-01-10 23:25:00,34.9,24.0,30.51,NW,321,1.0,2.0,65,0.00,,,0.00,weatherlink.com 1.10,2013-01-11 04:25:00,
2013-01-10 23:40:00,34.4,24.0,30.52,East,90,0.0,1.0,66,0.00,,,0.00,weatherlink.com 1.10,2013-01-11 04:40:00,
2013-01-10 23:55:00,34.0,24.0,30.51,NNW,332,0.0,2.0,67,0.00,,,0.00,weatherlink.com 1.10,2013-01-11 04:55:00,